#timestamp,LO_Frequency,Hit 
1499090415.5,286046974.7,N
1499090435.3,286046974.3,N
1499090455.1,286046977.1,N
1499090475.9,286046977.2,N
1499090495.7,286046974.1,N
1499090515.5,286046977.2,N
1499090535.4,286046974.9,N
1499090555.2,286046972.5,N
1499090575.0,286046975.5,N
1499090575.9,286046975.5,N
1499090595.7,286046973.0,N
1499090615.6,286046973.6,N
1499090635.4,286046974.0,N
1499090655.2,286046971.6,N
1499090675.1,286046972.1,N
1499090676.0,286046972.1,N
1499090695.8,286046971.1,N
1499090715.6,286046971.6,N
1499090735.5,286046972.3,N
1499090755.3,286046970.0,N
1499090775.1,286046970.2,N
1499090795.9,286046970.5,N
1499090815.7,286046968.0,N
1499090835.5,286046967.9,N
1499090855.4,286046968.0,N
1499090875.2,286046968.7,N
1499090895.0,286046968.2,N
1499090895.9,286046968.2,N
1499090915.7,286046966.2,N
1499090935.6,286046970.8,N
1499090955.4,286046966.3,N
1499090975.2,286046966.3,N
1499090995.1,286046967.4,N
1499090996.0,286046967.4,N
1499091015.8,286046966.9,N
1499091035.6,286046964.9,N
1499091055.5,286046965.1,N
1499091075.3,286046965.1,N
1499091095.1,286046965.2,N
1499091115.9,286046967.6,N
1499091135.7,286046966.0,N
1499091155.5,286046965.6,N
1499091175.4,286046963.1,N
1499091195.2,286046963.7,N
1499091215.0,286046963.1,N
1499091215.9,286046963.1,N
1499091235.8,286046963.6,N
1499091255.6,286046963.7,N
1499091275.4,286046963.7,N
1499091295.3,286046961.9,N
1499091315.1,286046961.4,N
1499091316.0,286046961.4,N
1499091335.8,286046961.3,N
1499091355.6,286046961.3,N
1499091375.5,286046962.5,N
1499091395.3,286046962.4,N
1499091415.1,286046960.5,N
1499091435.9,286046958.8,N
1499091455.7,286046958.5,N
1499091475.5,286046956.5,N
1499091495.4,286046959.5,N
1499091515.2,286046959.2,N
1499091535.0,286046957.4,N
1499091535.9,286046957.4,N
1499091555.8,286046957.0,N
1499091575.6,286046959.1,N
1499091595.4,286046959.2,N
1499091615.3,286046959.5,N
1499091635.1,286046956.6,N
1499091636.0,286046956.6,N
1499091655.8,286046957.2,N
1499091675.7,286046957.7,N
1499091695.5,286046957.8,N
1499091715.3,286046957.2,N
1499091735.1,286046955.0,N
1499091755.9,286046957.1,N
1499091775.7,286046957.3,N
1499091795.5,286046957.8,N
1499091815.4,286046955.4,N
1499091835.2,286046955.2,N
1499091855.0,286046958.0,N
1499091855.9,286046958.0,N
1499091875.8,286046955.1,N
1499091895.6,286046957.6,N
1499091915.4,286046957.3,N
1499091935.3,286046957.4,N
1499091955.1,286046957.4,N
1499091956.0,286046957.4,N
1499091975.8,286046955.0,N
1499091995.7,286046955.0,N
1499092015.5,286046955.9,N
1499092035.3,286046955.9,N
1499092055.2,286046956.4,N
1499092075.9,286046956.2,N
1499092095.7,286046953.4,N
1499092115.6,286046956.0,N
1499092135.4,286046953.8,N
1499092155.2,286046956.3,N
1499092175.0,286046955.7,N
1499092176.0,286046955.7,N
1499092195.8,286046956.3,N
1499092215.6,286046953.4,N
1499092235.4,286046958.0,N
1499092255.3,286046955.1,N
1499092275.1,286046959.6,N
1499092295.8,286046957.3,N
1499092315.7,286046955.1,N
1499092335.5,286046953.6,N
1499092355.3,286046953.8,N
1499092375.2,286046953.7,N
1499092395.9,286046954.4,N
1499092415.7,286046953.8,N
1499092435.6,286046953.5,N
1499092455.4,286046954.1,N
1499092475.2,286046951.7,N
1499092495.0,286046952.3,N
1499092496.0,286046952.3,N
1499092515.8,286046954.1,N
1499092535.6,286046952.3,N
1499092555.4,286046953.2,N
1499092575.3,286046948.7,N
1499092595.1,286046951.2,N
1499092615.8,286046953.2,N
1499092635.7,286046951.4,N
1499092655.5,286046950.5,N
1499092675.3,286046950.3,N
1499092695.2,286046951.3,N
1499092715.9,286046951.5,N
1499092735.7,286046949.6,N
1499092755.6,286046947.8,N
1499092775.4,286046949.3,N
1499092795.2,286046949.0,N
1499092815.1,286046951.1,N
1499092816.0,286046951.1,N
1499092835.8,286046951.0,N
1499092855.6,286046950.8,N
1499092875.5,286046951.2,N
1499092895.3,286046950.4,N
1499092915.1,286046951.1,N
1499092935.8,286046948.9,N
1499092955.7,286046951.1,N
1499092975.5,286046948.5,N
1499092995.3,286046952.9,N
1499093015.2,286046951.5,N
1499093035.9,286046950.8,N
1499093055.7,286046948.9,N
1499093075.6,286046949.1,N
1499093095.4,286046949.2,N
1499093115.2,286046947.9,N
1499093135.1,286046946.1,N
1499093136.0,286046946.1,N
1499093155.8,286046946.7,N
1499093175.6,286046947.9,N
1499093195.5,286046945.5,N
1499093215.3,286046945.6,N
1499093235.1,286046946.2,N
1499093255.9,286046946.7,N
1499093275.7,286046946.8,N
1499093295.5,286046946.6,N
1499093315.3,286046943.7,N
1499093335.2,286046946.2,N
1499093355.0,286046946.7,N
1499093355.9,286046946.7,N
1499093375.7,286046946.8,N
1499093395.6,286046943.9,N
1499093415.4,286046945.6,N
1499093435.2,286046948.0,N
1499093455.1,286046945.5,N
1499093456.0,286046945.5,N
1499093475.8,286046946.0,N
1499093495.6,286046946.7,N
1499093515.5,286046946.0,N
1499093535.3,286046946.0,N
1499093555.1,286046946.2,N
1499093575.9,286046946.1,N
1499093595.7,286046946.2,N
1499093615.5,286046943.9,N
1499093635.4,286046946.2,N
1499093655.2,286046944.6,N
1499093675.0,286046946.7,N
1499093675.9,286046946.7,N
1499093695.8,286046944.1,N
1499093715.6,286046944.2,N
1499093735.4,286046943.8,N
1499093755.2,286046943.7,N
1499093775.1,286046944.0,N
1499093776.0,286046944.0,N
1499093795.8,286046942.1,N
1499093815.6,286046942.5,N
1499093835.5,286046945.2,N
1499093855.3,286046942.3,N
1499093875.1,286046942.6,N
1499093895.9,286046942.5,N
1499093915.7,286046942.5,N
1499093935.5,286046942.9,N
1499093955.4,286046942.6,N
1499093975.2,286046942.8,N
1499093995.0,286046942.2,N
1499093995.9,286046942.2,N
